Estación de San Rafael
Ultimos registro cada 15 minutos 29
| N° | Estación | Fecha / Hora | Temperatura | Humedad | Lluvia | Velocidad | Dirección | Radiación | Presion |
| 29 | San Rafael | 05-05-2026 07:00 | 10,7 | 99,6 | 0 | 0 | 117 | 0,6 | 994,8 |
| 28 | San Rafael | 05-05-2026 06:45 | 10,7 | 99,6 | 0 | 0 | 216 | 0,6 | 995,9 |
| 27 | San Rafael | 05-05-2026 06:30 | 10,6 | 99,5 | 0 | 0 | 357 | 0,6 | 996,6 |
| 26 | San Rafael | 05-05-2026 06:15 | 10,6 | 99,5 | 0 | 0 | 3 | 0,6 | 994,9 |
| 25 | San Rafael | 05-05-2026 06:00 | 10,5 | 99,5 | 0 | 0,5 | 13 | 0,6 | 995,9 |
| 24 | San Rafael | 05-05-2026 05:45 | 10,2 | 99,6 | 0 | 0 | 306 | 0,6 | 995,8 |
| 23 | San Rafael | 05-05-2026 05:30 | 10,2 | 99,5 | 0 | 0 | 303 | 0,6 | 996,8 |
| 22 | San Rafael | 05-05-2026 05:15 | 10,2 | 99,6 | 0 | 0 | 323 | 0,6 | 996 |
| 21 | San Rafael | 05-05-2026 05:00 | 10,1 | 99,7 | 0 | 0 | 77 | 0,6 | 995,4 |
| 20 | San Rafael | 05-05-2026 04:45 | 9,8 | 99,6 | 0 | 0 | 84 | 0,6 | 996,1 |
| 19 | San Rafael | 05-05-2026 04:30 | 9,7 | 99,6 | 0 | 0 | 86 | 0,6 | 996,6 |
| 18 | San Rafael | 05-05-2026 04:15 | 9,7 | 99,6 | 0 | 0 | 86 | 0,6 | 996,5 |
| 17 | San Rafael | 05-05-2026 04:00 | 9,6 | 99,4 | 0 | 0 | 81 | 0,6 | 995,9 |
| 16 | San Rafael | 05-05-2026 03:45 | 9,7 | 99,4 | 0 | 0 | 81 | 0,6 | 995,7 |
| 15 | San Rafael | 05-05-2026 03:30 | 9,6 | 99,4 | 0 | 0 | 81 | 0,6 | 995,9 |
| 14 | San Rafael | 05-05-2026 03:15 | 9,4 | 99,4 | 0 | 0 | 81 | 0,6 | 995,7 |
| 13 | San Rafael | 05-05-2026 03:00 | 9,3 | 99,4 | 0 | 0 | 81 | 0,6 | 996 |
| 12 | San Rafael | 05-05-2026 02:45 | 9,3 | 99,2 | 0 | 0 | 81 | 0,6 | 996,3 |
| 11 | San Rafael | 05-05-2026 02:30 | 9,3 | 99,2 | 0 | 0 | 81 | 0,6 | 996,2 |
| 10 | San Rafael | 05-05-2026 02:15 | 9,2 | 99,2 | 0 | 0 | 81 | 0,6 | 996,4 |
| 9 | San Rafael | 05-05-2026 02:00 | 9,1 | 99 | 0 | 0 | 81 | 0,6 | 996,7 |
| 8 | San Rafael | 05-05-2026 01:45 | 9,1 | 98,9 | 0 | 0 | 81 | 0,6 | 996,5 |
| 7 | San Rafael | 05-05-2026 01:30 | 8,9 | 99 | 0 | 0 | 81 | 0,6 | 996,5 |
| 6 | San Rafael | 05-05-2026 01:15 | 8,7 | 98,8 | 0 | 0 | 81 | 0,6 | 996,5 |
| 5 | San Rafael | 05-05-2026 01:00 | 8,6 | 98,8 | 0 | 0 | 81 | 0,6 | 996,6 |
| 4 | San Rafael | 05-05-2026 00:45 | 8,7 | 98,6 | 0 | 0 | 81 | 0,6 | 996,7 |
| 3 | San Rafael | 05-05-2026 00:30 | 9,1 | 98,6 | 0 | 0 | 81 | 0,6 | 996,8 |
| 2 | San Rafael | 05-05-2026 00:15 | 9,4 | 98,6 | 0 | 0 | 81 | 0,6 | 996,9 |
| 1 | San Rafael | 05-05-2026 00:00 | 9,5 | 98,5 | 0 | 0 | 81 | 0,6 | 996,9 |